OE3AOG Weather Reports


time (UTC)temp
F
wind
direction
speed
knots
gust
knots
rain 1hr
in
rain 24hr
in
rain mn
in
humidity
%
barometer
mb
20260507052528 60 358 0.9 2.6 0.00 0.00 0.00 55 1009.8
20260507051527 60 348 0.9 3.5 0.00 0.00 0.00 55 1009.7
20260507050529 60 8 0.9 2.6 0.00 0.00 0.00 54 1009.6
20260507045520 60 288 0.9 2.6 0.00 0.00 0.00 54 1009.4
20260507044528 59 202 0.9 2.6 0.00 0.00 0.00 56 1009.1
20260507043521 59 161 1.7 3.5 0.00 0.00 0.00 56 1008.9
20260507042528 59 242 0.9 2.6 0.00 0.00 0.00 57 1008.9
20260507041520 59 327 1.7 3.5 0.00 0.00 0.00 57 1008.8
20260507040528 59 272 1.7 3.5 0.00 0.00 0.00 58 1008.6
20260507035536 59 2 1.7 3.5 0.00 0.00 0.00 57 1008.4
20260507034520 60 37 1.7 4.3 0.00 0.00 0.00 57 1008.5
20260507033528 60 154 1.7 2.6 0.00 0.00 0.00 56 1008.4
20260507032520 60 324 0.9 3.5 0.00 0.00 0.00 56 1008.4
20260507031528 59 296 1.7 2.6 0.00 0.00 0.00 58 1008.4
20260507030521 59 184 1.7 3.5 0.00 0.00 0.00 58 1008.2
20260507025528 59 12 0.9 3.5 0.00 0.00 0.00 58 1008.2
20260507024520 60 315 0.9 3.5 0.00 0.00 0.00 58 1008.1
20260507023528 60 321 1.7 5.2 0.00 0.00 0.00 57 1008.2
20260507022520 60 222 1.7 3.5 0.00 0.00 0.00 57 1008.1
20260507021519 60 332 0.9 3.5 0.00 0.00 0.00 57 1008.1
20260507020521 60 301 1.7 4.3 0.00 0.00 0.00 57 1008.0
20260507015528 60 249 0.9 3.5 0.00 0.00 0.00 56 1008.1
20260507014520 60 320 0.9 3.5 0.00 0.00 0.00 56 1008.1
20260507013528 60 300 0.9 4.3 0.00 0.00 0.00 56 1007.9
20260507012520 60 311 1.7 5.2 0.00 0.00 0.00 55 1007.8
20260507011528 60 312 1.7 5.2 0.00 0.00 0.00 56 1008.0
20260507010520 61 306 0.9 4.3 0.00 0.00 0.00 56 1007.7
20260507005521 61 318 1.7 3.5 0.00 0.00 0.00 56 1007.7
20260507004529 61 336 1.7 3.5 0.00 0.00 0.00 56 1007.7
20260507003521 61 327 0.9 6.1 0.00 0.00 0.00 56 1007.6
20260507002529 61 303 2.6 5.2 0.00 0.00 0.00 57 1007.6
20260507001521 61 317 1.7 4.3 0.00 0.00 0.00 58 1007.5
20260507000529 61 327 1.7 5.2 0.00 0.00 0.00 60 1007.4
20260506235529 61 320 1.7 3.5 0.00 0.00 0.00 62 1007.3
20260506234521 61 309 1.7 5.2 0.00 0.00 0.00 63 1007.2
20260506233529 61 319 0.9 3.5 0.00 0.00 0.00 63 1007.0
20260506232521 61 333 0.9 3.5 0.00 0.00 0.00 63 1006.9
20260506231529 60 45 0.9 1.7 0.00 0.00 0.00 62 1006.9
20260506230520 59 71 0.9 2.6 0.00 0.00 0.00 65 1006.8
20260506225529 59 130 0.9 2.6 0.00 0.00 0.00 65 1006.8
20260506224530 59 67 1.7 3.5 0.00 0.00 0.00 64 1006.6
20260506223521 60 80 0.9 1.7 0.00 0.00 0.00 63 1006.3
20260506222529 59 55 0.9 3.5 0.00 0.00 0.00 63 1006.1
20260506221521 61 9 0.9 1.7 0.00 0.00 0.00 62 1005.9
20260506220528 62 96 0.9 2.6 0.00 0.00 0.00 59 1005.6
20260506215529 62 159 2.6 4.3 0.00 0.00 0.00 59 1005.5
20260506214521 63 137 0.9 1.7 0.00 0.00 0.00 58 1005.2
20260506213529 63 157 2.6 6.1 0.00 0.00 0.00 57 1005.2
20260506212520 63 164 3.5 6.1 0.00 0.00 0.00 58 1004.9
20260506211529 64 162 3.5 6.1 0.00 0.00 0.00 57 1004.9
20260506210520 64 172 4.3 8.7 0.00 0.00 0.00 57 1004.7
20260506205529 64 161 4.3 10.4 0.00 0.00 0.00 57 1004.6
20260506204521 64 165 3.5 9.6 0.00 0.00 0.00 56 1004.4
20260506203528 65 160 3.5 8.7 0.00 0.00 0.00 55 1004.4
20260506202521 65 171 4.3 9.6 0.00 0.00 0.00 55 1004.4
20260506201520 65 155 4.3 9.6 0.00 0.00 0.00 54 1004.3
20260506200521 66 141 2.6 7.8 0.00 0.00 0.00 53 1004.3
20260506195529 65 168 4.3 12.2 0.00 0.00 0.00 54 1004.2
20260506194521 65 135 4.3 7.8 0.00 0.00 0.00 55 1004.1
20260506193528 66 134 4.3 9.6 0.00 0.00 0.00 54 1003.9
20260506192521 66 141 5.2 10.4 0.00 0.00 0.00 54 1004.0
20260506191529 67 150 3.5 11.3 0.00 0.00 0.00 53 1003.9
20260506190520 67 175 4.3 10.4 0.00 0.00 0.00 53 1003.8
20260506185530 67 168 6.1 15.6 0.00 0.00 0.00 52 1003.5
20260506184530 68 163 5.2 14.8 0.00 0.00 0.00 51 1003.5
20260506183521 68 175 5.2 11.3 0.00 0.00 0.00 50 1003.4
20260506182529 68 177 6.1 15.6 0.00 0.00 0.00 51 1003.2
20260506181521 68 175 7.8 13.0 0.00 0.00 0.00 51 1003.2
20260506180529 68 177 7.8 19.1 0.00 0.00 0.00 50 1003.1
20260506175522 69 175 8.7 19.1 0.00 0.00 0.00 50 1003.0
20260506174529 69 176 7.8 16.5 0.00 0.00 0.00 49 1003.0
20260506173521 70 175 7.8 16.5 0.00 0.00 0.00 48 1003.0
20260506172529 70 172 7.0 14.8 0.00 0.00 0.00 47 1003.0
20260506171521 70 174 5.2 11.3 0.00 0.00 0.00 47 1003.1
20260506170529 71 165 6.1 15.6 0.00 0.00 0.00 46 1003.4
20260506165529 71 164 7.0 15.6 0.00 0.00 0.00 46 1003.2
20260506164522 72 179 7.0 19.1 0.00 0.00 0.00 45 1003.4
20260506163530 72 163 6.1 13.9 0.00 0.00 0.00 44 1003.4
20260506162521 73 171 5.2 14.8 0.00 0.00 0.00 43 1003.7
20260506161529 73 164 6.1 15.6 0.00 0.00 0.00 42 1003.8
20260506160521 74 166 5.2 14.8 0.00 0.00 0.00 42 1003.7
20260506155529 74 166 6.1 13.9 0.00 0.00 0.00 42 1003.7
20260506154521 74 168 5.2 12.2 0.00 0.00 0.00 43 1003.7
20260506153529 73 177 8.7 16.5 0.00 0.00 0.00 43 1003.7
20260506152521 74 161 7.8 19.1 0.00 0.00 0.00 43 1003.8
20260506151529 74 169 8.7 19.1 0.00 0.00 0.00 43 1004.0
20260506150521 74 168 7.8 21.7 0.00 0.00 0.00 43 1003.9
20260506145529 74 174 7.0 18.2 0.00 0.00 0.00 42 1004.0
20260506144521 75 158 7.0 20.0 0.00 0.00 0.00 41 1003.9
20260506143522 75 165 7.8 20.0 0.00 0.00 0.00 40 1004.0
20260506142529 75 168 8.7 20.0 0.00 0.00 0.00 39 1004.1
20260506141521 76 165 8.7 16.5 0.00 0.00 0.00 37 1004.1
20260506140530 76 175 7.8 20.9 0.00 0.00 0.00 37 1004.0
20260506135530 77 173 7.0 15.6 0.00 0.00 0.00 36 1003.9
20260506134529 77 168 7.0 20.0 0.00 0.00 0.00 36 1004.0
20260506133521 77 171 7.0 14.8 0.00 0.00 0.00 36 1004.0
20260506132529 77 178 7.0 17.4 0.00 0.00 0.00 36 1004.0
20260506131521 78 164 6.1 14.8 0.00 0.00 0.00 35 1003.9
20260506130529 77 156 7.0 16.5 0.00 0.00 0.00 36 1004.0
20260506125529 77 162 6.1 13.0 0.00 0.00 0.00 35 1004.3
20260506124522 77 168 6.1 15.6 0.00 0.00 0.00 34 1004.2
20260506123530 77 179 6.1 13.9 0.00 0.00 0.00 34 1004.4
20260506122522 76 167 5.2 14.8 0.00 0.00 0.00 35 1004.4
20260506121529 76 162 6.1 14.8 0.00 0.00 0.00 35 1004.3
20260506120521 76 139 6.1 13.0 0.00 0.00 0.00 35 1004.5
20260506115522 77 154 7.0 16.5 0.00 0.00 0.00 35 1004.5
20260506114529 76 146 5.2 15.6 0.00 0.00 0.00 35 1004.7
20260506113522 76 166 5.2 12.2 0.00 0.00 0.00 34 1004.9
20260506112530 77 144 6.1 17.4 0.00 0.00 0.00 33 1005.0
20260506111521 77 156 6.1 13.0 0.00 0.00 0.00 32 1005.2
20260506110530 77 166 4.3 12.2 0.00 0.00 0.00 33 1005.2
20260506105530 75 132 7.0 13.0 0.00 0.00 0.00 33 1005.5
20260506104522 75 141 6.1 14.8 0.00 0.00 0.00 32 1005.7
20260506103529 75 141 7.0 16.5 0.00 0.00 0.00 38 1005.9
20260506102522 74 140 5.2 14.8 0.00 0.00 0.00 40 1006.1
20260506101529 73 134 6.1 13.0 0.00 0.00 0.00 41 1006.1
20260506100521 73 125 7.0 13.0 0.00 0.00 0.00 42 1006.4
20260506095522 72 131 7.8 20.0 0.00 0.00 0.00 42 1006.7
20260506094530 71 136 7.0 13.0 0.00 0.00 0.00 45 1006.7
20260506093521 72 149 5.2 14.8 0.00 0.00 0.00 45 1006.9
20260506092522 72 116 5.2 14.8 0.00 0.00 0.00 44 1007.0
20260506091530 72 140 6.1 13.0 0.00 0.00 0.00 44 1007.1
20260506090522 72 120 6.1 11.3 0.00 0.00 0.00 43 1007.2
20260506085530 72 110 5.2 12.2 0.00 0.00 0.00 43 1007.2
20260506084521 72 130 5.2 12.2 0.00 0.00 0.00 41 1007.2
20260506083530 72 129 4.3 9.6 0.00 0.00 0.00 41 1007.2
20260506082521 72 144 3.5 7.8 0.00 0.00 0.00 42 1007.2
20260506081529 72 141 3.5 8.7 0.00 0.00 0.00 41 1007.0
20260506080522 73 168 2.6 5.2 0.00 0.00 0.00 40 1007.2
20260506072522 70 150 1.7 4.3 0.00 0.00 0.00 44 1007.3
20260506071530 70 138 2.6 5.2 0.00 0.00 0.00 43 1007.4
20260506070522 69 157 2.6 4.3 0.00 0.00 0.00 45 1007.6
20260506061530 69 110 0.0 1.7 0.00 0.00 0.00 49 1007.6
20260506060522 67 274 0.0 2.6 0.00 0.00 0.00 52 1007.7